[[{"header":{"parameterUnit":"m.s-1","parameterCategory":1,"la1":30.2991,"la2":30.254,"lo1":-89.0895,"lo2":-89.0444,"dy":0.0017,"dx":0.0017,"nx":28,"ny":28,"refTime":"2023-09-05T21:00:00:Z","depth":0,"parameterNumber":2,"parameterNumberName":"U-component_of_WINDS"},"data":[0,0,0,0,0,0,0,0,0,0,0,0,0,0,0,0,0,0,0,0,0,0,0,0,0,0,0,0,0,0,0,0,0,0,0,0,0,0,0,0,0,0,0,0,0,0,0,0,0,0,0,0,0,0,0,0,0,0,2.2163,2.2163,0,2.2205,2.2206,2.2206,2.2139,2.2137,2.2134,2.2132,2.2175,2.2178,2.2181,0,0,0,0,0,0,0,0,0,0,0,0,0,2.2021,2.2024,2.2162,2.2163,2.2164,2.2205,2.2206,2.2206,2.2139,2.2137,2.2134,2.2131,2.2174,2.2178,2.2182,0,0,0,0,0,0,0,0,0,0,0,0,0,2.2075,2.2025,2.2162,2.2135,2.2133,2.2205,2.2206,2.2206,2.214,2.2137,2.2133,2.213,2.2173,2.2177,2.2182,2.2282,0,0,2.2197,2.2199,0,0,0,0,0,0,0,0,2.2072,2.208,2.2139,2.2137,2.2135,2.2163,2.2171,2.2232,2.2141,2.2137,2.2132,2.2128,2.2174,2.2178,2.2194,2.2284,2.2286,2.2198,2.2201,2.2203,2.2204,0,0,0,0,0,0,0,2.2068,2.2078,2.2179,2.214,2.2137,2.212,2.2124,2.2183,2.2175,2.2137,2.2133,2.2139,2.2172,2.2189,2.2195,2.2287,2.2198,2.2202,2.2205,2.2207,2.2459,2.2462,0,0,0,0,0,0,2.2068,2.2075,2.2178,2.2181,2.2094,2.2126,2.213,2.2158,2.2174,2.2173,2.2142,2.2135,2.2183,2.2189,2.2196,2.2312,2.2203,2.2207,2.221,2.2455,2.2459,2.2463,0,0,0,0,0,0,2.2065,2.2078,2.2176,2.2127,2.2138,2.2132,2.2164,2.216,2.2178,2.2177,2.2175,2.2161,2.218,2.2189,2.2261,2.2312,2.221,2.2214,2.245,2.2456,2.2461,2.2546,0,0,0,0,0,0,2.2061,2.2077,2.2116,2.2128,2.2141,2.2242,2.2167,2.2164,2.2186,2.2179,2.2194,2.2194,2.2178,2.2254,2.2266,2.2317,2.2218,2.2446,2.2453,2.246,2.2539,2.2554,2.2567,0,0,0,0,0,2.2057,2.2138,2.2118,2.2131,2.2189,2.2245,2.2252,2.2233,2.2191,2.2229,2.2228,2.2193,2.2305,2.2262,2.2275,2.2329,2.2442,2.2451,2.2459,2.2532,2.2551,2.2567,0,0,0,0,0,0,2.2132,2.2139,2.2117,2.2205,2.2225,2.2233,2.2281,2.2253,2.2285,2.2276,2.2251,2.2255,2.2331,2.2337,2.2289,2.2425,2.2367,2.2378,2.2418,2.2436,2.245,2.2446,2.2222,0,0,0,0,0,2.2159,2.2205,2.2208,2.2286,2.2297,2.2287,2.2311,2.2294,2.2313,2.2321,2.2326,2.2345,2.2384,2.2411,2.2447,2.254,2.2541,2.2583,2.2597,2.2609,2.2618,2.2666,2.2684,2.2491,2.2491,2.2491,0,0,2.2215,2.2225,2.2255,2.2301,2.2314,2.236,2.2295,2.2347,2.238,2.2329,2.2396,2.2401,2.242,2.2503,2.2539,2.251,2.2672,2.262,2.2629,2.2632,2.2676,2.2694,2.2711,2.2496,2.2495,2.2495,0,0,2.2341,2.2354,2.2418,2.2433,2.2453,2.2446,2.2462,2.2474,2.2475,2.2543,2.2504,2.2544,2.2613,2.2627,2.2644,2.2774,2.2742,2.2787,2.286,2.2906,2.2922,2.2935,2.2979,2.2995,2.2797,2.2797,2.2797,0,2.2408,2.2476,2.2455,2.2509,2.253,2.2485,2.255,2.2565,2.2596,2.2611,2.2578,2.2662,2.2673,2.2757,2.2788,2.2804,2.282,2.2784,2.2921,2.2934,2.2946,2.2988,2.3005,2.2802,2.2801,2.2801,2.28,0,2.2557,2.2605,2.2655,2.2686,2.2712,2.2771,2.2758,2.2787,2.2768,2.2764,2.2832,2.2843,2.288,2.2899,2.2882,2.298,2.2961,2.2926,2.2866,2.297,2.3009,2.3025,2.2809,2.2808,2.2806,2.2805,0,0,2.2731,2.2748,2.2767,2.2779,2.2798,2.2835,2.2892,2.2927,2.2952,2.2975,2.302,2.3079,2.3046,2.3065,2.3048,2.3089,2.3189,2.3048,2.3048,2.3072,2.3296,2.3321,2.334,2.3168,2.3171,2.3174,2.3293,0,2.2854,2.2951,2.2933,2.3028,2.3071,2.3029,2.3078,2.3094,2.3092,2.3128,2.3125,2.3166,2.312,2.3131,2.317,2.3169,2.3233,2.316,2.3209,2.3211,2.3203,2.336,2.3388,2.35,2.3308,2.3311,2.3313,0,2.301,2.3039,2.3138,2.3148,2.3165,2.321,2.324,2.3275,2.3293,2.3288,2.3309,2.3284,2.3339,2.328,2.3355,2.3305,2.3324,2.3327,2.333,2.3333,2.3267,2.3365,2.3535,2.3551,2.3337,2.3335,2.3333,0,2.3124,2.3188,2.3254,2.3267,2.3281,2.3313,2.332,2.3334,2.3356,2.3383,2.3397,2.343,2.3447,2.3473,2.3457,2.3416,2.3533,2.3474,2.3529,2.353,2.3555,2.3553,2.3728,2.3571,2.357,2.357,2.357,0,2.3263,2.3324,2.3305,2.3346,2.3414,2.3392,2.3459,2.3461,2.3474,2.3513,2.348,2.3518,2.3496,2.3532,2.352,2.3582,2.3591,2.3587,2.3583,2.3589,2.3589,2.36,2.3591,2.3575,2.3574,2.3573,2.3572,0,2.3401,2.3391,2.3461,2.3468,2.3472,2.3521,2.3527,2.3564,2.3559,2.361,2.3621,2.3613,2.3653,2.364,2.3684,2.3676,2.3754,2.3741,2.3748,2.3744,2.38,2.3794,2.3987,2.401,2.3839,2.3841,2.3842,0,2.3489,2.3535,2.3548,2.3572,2.3582,2.3621,2.3643,2.3623,2.3648,2.367,2.3704,2.3742,2.377,2.3836,2.3834,2.3867,2.3853,2.3918,2.3857,2.3862,2.3851,2.3848,2.3851,2.393,2.3932,2.3933,2.3935,0,2.3645,2.3638,2.3671,2.3703,2.373,2.3754,2.3774,2.3796,2.3777,2.3806,2.3846,2.3869,2.3913,2.3949,2.3979,2.3985,2.3956,2.3954,2.3968,2.3974,2.3975,2.3973,2.3779,2.3949,2.3948,2.3947,2.3946,2.3945,2.376,2.3798,2.3812,2.385,2.3863,2.3883,2.3918,2.3917,2.3951,2.3985,2.3971,2.4017,2.4031,2.4068,2.4078,2.4113,2.4088,2.411,2.4114,2.4119,2.4125,2.3971,2.4119,2.4119,2.4118,2.4118,2.4118,0,2.3912,2.3919,2.3954,2.3984,2.4013,2.3984,2.4005,2.4031,2.4072,2.4088,2.4116,2.4162,2.4197,2.4198,2.423,2.4258,2.4245,2.4267,2.4264,2.4265,2.4147,2.4131,2.4276,2.4276,2.4276,2.4276,2.4276,2.4276,2.3995,2.4058,2.4052,2.412,2.4126,2.4171,2.4185,2.4202,2.4215,2.4267,2.4296,2.4296,2.4305,2.4338,2.4368,2.4367,2.438,2.4406,2.44,2.429,2.4274,2.4259,2.4243,2.441,2.441,2.4515,2.4516,2.4516]},{"header":{"parameterUnit":"m.s-1","parameterCategory":1,"la1":30.2991,"la2":30.254,"lo1":-89.0895,"lo2":-89.0444,"dy":0.0017,"dx":0.0017,"nx":28,"ny":28,"refTime":"2023-09-05T21:00:00:Z","depth":0,"parameterNumber":3,"parameterNumberName":"V-component_of_WINDS"},"data":[0,0,0,0,0,0,0,0,0,0,0,0,0,0,0,0,0,0,0,0,0,0,0,0,0,0,0,0,0,0,0,0,0,0,0,0,0,0,0,0,0,0,0,0,0,0,0,0,0,0,0,0,0,0,0,0,0,0,0.1922,0.1922,0,0.192,0.192,0.192,0.1916,0.1916,0.1916,0.1916,0.1914,0.1914,0.1914,0,0,0,0,0,0,0,0,0,0,0,0,0,0.1923,0.1923,0.1922,0.1922,0.1922,0.192,0.192,0.192,0.1916,0.1916,0.1916,0.1916,0.1914,0.1914,0.1914,0,0,0,0,0,0,0,0,0,0,0,0,0,0.1922,0.1923,0.1922,0.192,0.192,0.192,0.192,0.192,0.1916,0.1916,0.1916,0.1916,0.1914,0.1914,0.1914,0.1917,0,0,0.1914,0.1914,0,0,0,0,0,0,0,0,0.1922,0.1922,0.192,0.192,0.192,0.1918,0.192,0.1919,0.1916,0.1917,0.1916,0.1916,0.1916,0.1916,0.1915,0.1917,0.1917,0.1914,0.1914,0.1914,0.1914,0,0,0,0,0,0,0,0.1922,0.1922,0.1921,0.192,0.192,0.1919,0.1919,0.192,0.1917,0.1917,0.1917,0.1917,0.1916,0.1915,0.1915,0.1917,0.1914,0.1914,0.1914,0.1915,0.192,0.192,0,0,0,0,0,0,0.1923,0.1922,0.1921,0.1921,0.1921,0.1919,0.1919,0.1919,0.1917,0.1917,0.1917,0.1917,0.1915,0.1915,0.1915,0.1918,0.1914,0.1915,0.1915,0.192,0.192,0.192,0,0,0,0,0,0,0.1923,0.1923,0.1921,0.1922,0.1921,0.1919,0.1919,0.1919,0.1919,0.1917,0.1916,0.1917,0.1915,0.1915,0.1916,0.1918,0.1915,0.1915,0.192,0.192,0.192,0.1924,0,0,0,0,0,0,0.1923,0.1923,0.1924,0.1922,0.1921,0.1923,0.1919,0.1919,0.1919,0.1918,0.1917,0.1917,0.1915,0.1916,0.1917,0.1918,0.1915,0.192,0.192,0.192,0.1924,0.1925,0.1925,0,0,0,0,0,0.1923,0.1925,0.1924,0.1924,0.1923,0.1923,0.1923,0.1921,0.1919,0.192,0.1919,0.1917,0.1918,0.1917,0.1917,0.1918,0.192,0.192,0.192,0.1924,0.1924,0.1925,0,0,0,0,0,0,0.1927,0.1925,0.1923,0.1925,0.1924,0.1922,0.1923,0.1921,0.1921,0.1921,0.1919,0.1918,0.192,0.1919,0.1918,0.1921,0.1919,0.1919,0.1921,0.1922,0.1922,0.1923,0.1915,0,0,0,0,0,0.1928,0.1929,0.1926,0.1928,0.1928,0.1925,0.1925,0.1924,0.1923,0.1923,0.1922,0.1921,0.1921,0.1922,0.1922,0.1924,0.1924,0.1925,0.1926,0.1926,0.1926,0.1927,0.1928,0.1921,0.1921,0.1921,0,0,0.1931,0.1929,0.193,0.1929,0.1928,0.1928,0.1925,0.1926,0.1926,0.1923,0.1924,0.1923,0.1922,0.1924,0.1925,0.1924,0.1928,0.1926,0.1927,0.1927,0.1928,0.1928,0.1929,0.1921,0.1921,0.1921,0,0,0.1935,0.1934,0.1935,0.1935,0.1933,0.1932,0.1932,0.193,0.193,0.1931,0.1928,0.1929,0.1929,0.1929,0.1928,0.1933,0.1931,0.1933,0.1936,0.1937,0.1937,0.1938,0.1939,0.194,0.1933,0.1933,0.1933,0,0.1939,0.1939,0.1936,0.1937,0.1937,0.1934,0.1935,0.1934,0.1933,0.1933,0.1932,0.1932,0.1931,0.1933,0.1934,0.1934,0.1934,0.1933,0.1937,0.1938,0.1938,0.1939,0.194,0.1933,0.1933,0.1933,0.1933,0,0.1943,0.1943,0.1944,0.1943,0.1943,0.1944,0.1941,0.1942,0.194,0.1939,0.194,0.1939,0.1938,0.1939,0.1937,0.194,0.1939,0.1938,0.1935,0.1939,0.194,0.1941,0.1934,0.1933,0.1933,0.1933,0,0,0.195,0.1947,0.1948,0.1947,0.1945,0.1946,0.1946,0.1946,0.1946,0.1946,0.1946,0.1946,0.1945,0.1945,0.1943,0.1944,0.1947,0.1942,0.1942,0.1943,0.195,0.1951,0.1952,0.1946,0.1946,0.1946,0.195,0,0.1954,0.1955,0.1953,0.1955,0.1955,0.1952,0.1953,0.1952,0.1951,0.1951,0.1949,0.195,0.1947,0.1947,0.1948,0.1947,0.1949,0.1946,0.1947,0.1947,0.1947,0.1953,0.1954,0.1958,0.1951,0.1951,0.1951,0,0.196,0.1959,0.196,0.1958,0.1958,0.1959,0.1958,0.1958,0.1957,0.1956,0.1956,0.1954,0.1955,0.1953,0.1954,0.1952,0.1952,0.1952,0.1952,0.1952,0.1949,0.1953,0.1959,0.196,0.1952,0.1952,0.1951,0,0.1965,0.1964,0.1965,0.1965,0.1962,0.1963,0.1962,0.1961,0.1961,0.196,0.196,0.196,0.1959,0.1959,0.1957,0.1956,0.1959,0.1956,0.1958,0.1958,0.1959,0.1959,0.1965,0.1959,0.1959,0.1959,0.1959,0,0.197,0.1971,0.1967,0.1968,0.1969,0.1966,0.1968,0.1966,0.1965,0.1966,0.1963,0.1964,0.1961,0.1961,0.196,0.1961,0.1961,0.196,0.196,0.196,0.196,0.196,0.196,0.1959,0.1959,0.1959,0.1959,0,0.1976,0.1974,0.1974,0.1972,0.1971,0.1972,0.197,0.1971,0.1969,0.197,0.197,0.1967,0.1968,0.1966,0.1965,0.1964,0.1966,0.1965,0.1966,0.1966,0.1968,0.1968,0.1974,0.1975,0.1968,0.1969,0.1969,0,0.1979,0.198,0.1977,0.1977,0.1976,0.1976,0.1976,0.1974,0.1973,0.1972,0.1973,0.1973,0.1972,0.1972,0.1971,0.1971,0.197,0.1972,0.197,0.197,0.197,0.197,0.197,0.1973,0.1973,0.1973,0.1973,0,0.1985,0.1984,0.1983,0.1983,0.1982,0.1982,0.1981,0.1981,0.1978,0.1978,0.1978,0.1978,0.1977,0.1977,0.1976,0.1976,0.1974,0.1974,0.1974,0.1975,0.1975,0.1975,0.1968,0.1973,0.1973,0.1973,0.1973,0.1973,0.199,0.199,0.1989,0.1988,0.1987,0.1986,0.1987,0.1985,0.1985,0.1984,0.1983,0.1983,0.1982,0.1981,0.198,0.198,0.1979,0.198,0.198,0.198,0.198,0.1975,0.198,0.198,0.198,0.198,0.198,0,0.1996,0.1994,0.1994,0.1993,0.1992,0.1991,0.1989,0.1989,0.1989,0.1988,0.1988,0.1988,0.1988,0.1986,0.1986,0.1986,0.1985,0.1986,0.1986,0.1986,0.1981,0.1981,0.1987,0.1987,0.1987,0.1987,0.1987,0.1987,0.1999,0.1999,0.1998,0.1998,0.1997,0.1997,0.1996,0.1995,0.1995,0.1994,0.1994,0.1993,0.1992,0.1991,0.1991,0.199,0.199,0.1991,0.1991,0.1987,0.1986,0.1985,0.1985,0.1991,0.1992,0.1995,0.1995,0.1995]}]]